Weather History for 78774 - December, 2012

Change the Weather History Date:

Friday, December 21, 2012

  Actual Average Record
Temperature  
Mean Temperature 80 °F -  
Max Temperature 91 °F 88 °F - ()
Min Temperature 69 °F 73 °F - ()
Cooling Degree Days 15    
Growing Degree Days 30 (Base 50)    
Moisture  
Dew Point 66 °F    
Average Humidity 57    
Maximum Humidity 88    
Minimum Humidity 36    
Precipitation  
Precipitation 0.00 in - - ()
Sea Level Pressure  
Sea Level Pressure 29.82 in    
Wind  
Wind Speed 10 mph ()    
Max Wind Speed 28 mph    
Max Gust Speed 41 mph    
Visibility 7.7 miles    
Events      
T = Trace of Precipitation, MM = Missing Value Source: Averaged Metar Reports

Daily Weather History Graph

Daily Weather History Graph

Search for Another Location

Airport or City:

Trip Planner

Search our weather history database for the weather conditions in past years. The results will help you decide how hot, cold, wet, or windy it might be!

Date:

Astronomy

Dec. 21, 2012 Rise Set
Actual Time 5:55 AM CST 5:25 PM CST
Civil Twilight 5:32 AM CST 5:48 PM CST
Nautical Twilight 5:06 AM CST 6:15 PM CST
Astronomical Twilight 4:39 AM CST 6:41 PM CST
Moon 12:34 PM CST (12/21) 12:25 AM CST (12/21)
Length of Visible Light 12h 16m
Length of Day
11h 30m
Waxing Gibbous, 65% of the Moon is Illuminated
Dec 21
Waxing Gibbous
Dec 28
Full
Jan 4
Last Quarter
Jan 11
New
Jan 18
First Quarter

Hourly Weather History & Observations

Time (CST) Temp. Heat Index Dew Point Humidity Pressure Visibility Wind Dir Wind Speed Gust Speed Precip Events Conditions
6:00 AM 71 °F - 68 °F 86% 29.83 in 12 mi West 3.5 mph - -   Scattered Clouds
6:00 AM 71.6 °F - 68.0 °F 88% 29.83 in 6.2 mi West 3.5 mph - N/A   Mostly Cloudy
7:00 AM 75.2 °F - 68.0 °F 78% 29.85 in 6.2 mi SSW 4.6 mph - N/A   Mostly Cloudy
8:00 AM 80.6 °F 83.9 °F 69.8 °F 70% 29.87 in 6.2 mi West 6.9 mph - N/A   Mostly Cloudy
9:00 AM 84 °F - 67 °F 48% 29.89 in 12 mi WSW 6.9 mph - -   Scattered Clouds
9:00 AM 84.2 °F 87.3 °F 68.0 °F 58% 29.88 in 6.2 mi WSW 6.9 mph - N/A   Scattered Clouds
10:00 AM 87.8 °F 90.4 °F 66.2 °F 49% 29.85 in 6.2 mi East 12.7 mph - N/A   Scattered Clouds
11:00 AM 89.6 °F 92.2 °F 66.2 °F 46% 29.83 in 6.2 mi East 18.4 mph 29.9 mph N/A   Scattered Clouds
12:00 PM 89 °F - 65 °F 36% 29.81 in 12 mi East 17.3 mph - -   Scattered Clouds
12:00 PM 89.6 °F 92.2 °F 66.2 °F 46% 29.80 in 6.2 mi East 17.3 mph - N/A   Scattered Clouds
1:00 PM 89.6 °F 92.2 °F 66.2 °F 46% 29.78 in 6.2 mi East 17.3 mph 28.8 mph N/A   Scattered Clouds
2:00 PM 91.4 °F 94.0 °F 66.2 °F 43% 29.77 in 6.2 mi ENE 20.7 mph - N/A   Mostly Cloudy
3:00 PM 86 °F - 65 °F 40% 29.77 in 12 mi ENE 1.2 mph - -   Partly Cloudy
3:00 PM 86.0 °F 88.2 °F 66.2 °F 51% 29.76 in 6.2 mi ENE 19.6 mph - N/A   Scattered Clouds
4:00 PM 84.2 °F 86.6 °F 66.2 °F 55% 29.76 in 6.2 mi ENE 21.9 mph - N/A   Scattered Clouds
5:00 PM 82.4 °F 83.9 °F 64.4 °F 54% 29.79 in 6.2 mi East 17.3 mph - N/A   Mostly Cloudy
6:00 PM 79 °F - 67 °F 58% 29.81 in 12 mi ENE 18.4 mph - -   Overcast
6:00 PM 78.8 °F - 66.2 °F 65% 29.80 in 6.2 mi ENE 18.4 mph - N/A   Mostly Cloudy
7:00 PM 77.0 °F - 64.4 °F 65% 29.83 in 6.2 mi ENE 26.5 mph 41.4 mph N/A   Mostly Cloudy
8:00 PM 78.8 °F - 64.4 °F 61% 29.84 in 6.2 mi East 27.6 mph 41.4 mph N/A   Mostly Cloudy